Location: Unspecified
(41.5000°N, 0.0000°E)
Time: 13:35:10
(UTC+00:00)

Courier 1B Rocket - Pass Details

Date: 26 June 2019
Orbit: 920 x 1202 km, 28.2° (Epoch: 22 July)

Event Time Altitude Azimuth Distance (km) Brightness Sun altitude
Rises 07:12:53 0° 255° (WSW) 3,745 7.5 28.0°
Reaches altitude 10° 07:17:01 10° 232° (SW) 2,732 7.0 28.8°
Maximum altitude 07:20:17 14° 202° (SSW) 2,391 6.9 29.4°
Drops below altitude 10° 07:23:29 10° 171° (S) 2,652 7.4 30.0°
Sets 07:27:24 0° 148° (SSE) 3,561 8.3 30.7°
